GW7041 Weather Reports


Display with metric or nautical units.
time (UTC)temp
F
wind
direction
speed
MPH
gust
MPH
rain 1hr
in
rain 24hr
in
rain mn
in
humidity
%
barometer
mb
20260906180922 102 319 5.0 6.0 0.00 0.00 0.00 31 1013.2
20260906180421 102 344 1.0 8.0 0.00 0.00 0.00 32 1013.2
20260906175922 102 267 3.0 5.0 0.00 0.00 0.00 33 1013.2
20260906175423 101 295 2.0 4.0 0.00 0.00 0.00 34 1013.2
20260906174921 100 182 2.0 5.0 0.00 0.00 0.00 35 1013.5
20260906174422 100 258 1.0 5.0 0.00 0.00 0.00 34 1013.5
20260906173926 98 222 3.0 5.0 0.00 0.00 0.00 36 1013.9
20260906173423 98 280 3.0 3.0 0.00 0.00 0.00 36 1013.9
20260906172923 98 173 2.0 3.0 0.00 0.00 0.00 36 1013.9
20260906172422 101 310 9.0 10.0 0.00 0.00 0.00 34 1013.9
20260906171922 100 324 5.0 7.0 0.00 0.00 0.00 35 1014.2
20260906171423 100 329 3.0 6.0 0.00 0.00 0.00 35 1014.2
20260906170922 100 301 3.0 7.0 0.00 0.00 0.00 35 1014.2
20260906170422 100 168 4.0 7.0 0.00 0.00 0.00 34 1014.2
20260906165922 100 219 3.0 5.0 0.00 0.00 0.00 35 1014.6
20260906165424 99 310 6.0 6.0 0.00 0.00 0.00 35 1014.2
20260906164924 99 278 4.0 7.0 0.00 0.00 0.00 35 1014.6
20260906164423 100 322 7.0 9.0 0.00 0.00 0.00 35 1014.9
20260906163922 99 217 2.0 3.0 0.00 0.00 0.00 36 1014.6
20260906163422 100 249 2.0 4.0 0.00 0.00 0.00 36 1014.6
20260906162922 99 265 2.0 3.0 0.00 0.00 0.00 36 1014.9
20260906162422 99 213 3.0 7.0 0.00 0.00 0.00 37 1014.6
20260906161922 98 300 2.0 5.0 0.00 0.00 0.00 37 1014.6
20260906161422 97 255 2.0 3.0 0.00 0.00 0.00 37 1014.6
20260906160922 98 192 3.0 5.0 0.00 0.00 0.00 37 1014.9
20260906160421 97 234 1.0 3.0 0.00 0.00 0.00 38 1014.9
20260906155922 97 288 3.0 4.0 0.00 0.00 0.00 39 1015.2
20260906155422 96 216 2.0 3.0 0.00 0.00 0.00 40 1014.9
20260906154922 96 310 4.0 4.0 0.00 0.00 0.00 40 1014.9
20260906154422 96 274 2.0 5.0 0.00 0.00 0.00 40 1014.9
20260906153422 94 222 4.0 6.0 0.00 0.00 0.00 43 1014.9
20260906152932 94 238 4.0 6.0 0.00 0.00 0.00 42 1014.9
20260906152422 94 228 2.0 5.0 0.00 0.00 0.00 43 1014.9
20260906151922 93 247 3.0 3.0 0.00 0.00 0.00 43 1014.9
20260906151422 93 209 3.0 3.0 0.00 0.00 0.00 44 1014.6
20260906150922 92 264 1.0 3.0 0.00 0.00 0.00 44 1014.9
20260906150422 91 245 0.0 3.0 0.00 0.00 0.00 46 1014.6
20260906145924 90 244 3.0 3.0 0.00 0.00 0.00 47 1014.9
20260906145422 89 218 2.0 3.0 0.00 0.00 0.00 50 1015.2
20260906144922 88 313 2.0 3.0 0.00 0.00 0.00 51 1014.9
20260906144422 88 293 0.0 2.0 0.00 0.00 0.00 52 1014.9
20260906143923 88 259 2.0 2.0 0.00 0.00 0.00 54 1014.9
20260906143422 87 271 1.0 3.0 0.00 0.00 0.00 54 1015.2
20260906142922 87 256 2.0 3.0 0.00 0.00 0.00 55 1014.6
20260906142422 86 157 2.0 4.0 0.00 0.00 0.00 56 1014.9
20260906141922 85 221 3.0 3.0 0.00 0.00 0.00 58 1014.9
20260906141422 84 258 0.0 2.0 0.00 0.00 0.00 59 1015.2
20260906140927 84 290 1.0 3.0 0.00 0.00 0.00 58 1015.2
20260906140423 84 217 2.0 4.0 0.00 0.00 0.00 59 1014.9
20260906135922 84 220 2.0 4.0 0.00 0.00 0.00 60 1014.9
20260906135422 83 167 3.0 6.0 0.00 0.00 0.00 61 1014.9
20260906134922 83 192 3.0 5.0 0.00 0.00 0.00 61 1014.6
20260906134423 83 183 3.0 6.0 0.00 0.00 0.00 62 1014.9
20260906133922 82 230 4.0 5.0 0.00 0.00 0.00 62 1014.9
20260906133422 82 193 3.0 3.0 0.00 0.00 0.00 63 1014.9
20260906132922 81 198 3.0 4.0 0.00 0.00 0.00 64 1014.9
20260906132423 81 198 3.0 4.0 0.00 0.00 0.00 64 1014.9
20260906131922 80 167 2.0 4.0 0.00 0.00 0.00 65 1014.6
20260906131422 80 183 3.0 4.0 0.00 0.00 0.00 65 1014.9
20260906130930 80 190 3.0 6.0 0.00 0.00 0.00 66 1014.6
20260906130422 80 193 5.0 6.0 0.00 0.00 0.00 66 1014.9
20260906125922 79 186 5.0 7.0 0.00 0.00 0.00 67 1014.6
20260906125422 77 204 6.0 7.0 0.00 0.00 0.00 70 1014.2
20260906124923 76 204 1.0 5.0 0.00 0.00 0.00 74 1014.6
20260906124423 75 246 0.0 6.0 0.00 0.00 0.00 76 1014.2
20260906123923 75 220 3.0 5.0 0.00 0.00 0.00 76 1014.2
20260906123422 75 185 3.0 5.0 0.00 0.00 0.00 77 1014.2
20260906122922 75 216 3.0 5.0 0.00 0.00 0.00 78 1014.2
20260906122422 74 212 2.0 3.0 0.00 0.00 0.00 77 1014.2
20260906121921 74 101 0.0 3.0 0.00 0.00 0.00 77 1013.9
20260906121422 74 269 3.0 3.0 0.00 0.00 0.00 77 1013.9
20260906120922 74 333 0.0 0.0 0.00 0.00 0.00 76 1013.5
20260906120422 74 277 0.0 3.0 0.00 0.00 0.00 77 1013.5
20260906115922 74 194 1.0 3.0 0.00 0.00 0.00 77 1013.5
20260906115422 74 269 4.0 4.0 0.00 0.00 0.00 77 1013.5
20260906114922 74 113 2.0 3.0 0.00 0.00 0.00 77 1013.5
20260906114422 74 219 0.0 2.0 0.00 0.00 0.00 77 1013.5
20260906113922 75 356 1.0 2.0 0.00 0.00 0.00 77 1013.5
20260906113422 75 12 1.0 4.0 0.00 0.00 0.00 76 1013.5
20260906112923 75 313 0.0 1.0 0.00 0.00 0.00 76 1013.5
20260906112422 75 304 0.0 1.0 0.00 0.00 0.00 75 1013.5
20260906111922 75 266 0.0 1.0 0.00 0.00 0.00 75 1013.5
20260906111422 75 259 0.0 1.0 0.00 0.00 0.00 75 1013.2
20260906110922 75 253 1.0 2.0 0.00 0.00 0.00 74 1013.2
20260906110423 76 241 0.0 1.0 0.00 0.00 0.00 75 1013.2
20260906105922 75 200 1.0 2.0 0.00 0.00 0.00 75 1013.2
20260906105422 75 192 2.0 2.0 0.00 0.00 0.00 76 1013.2
20260906104923 75 315 0.0 0.0 0.00 0.00 0.00 75 1013.2
20260906104422 75 290 0.0 1.0 0.00 0.00 0.00 75 1013.5
20260906103922 75 299 0.0 1.0 0.00 0.00 0.00 74 1013.2
20260906103422 76 293 1.0 1.0 0.00 0.00 0.00 74 1013.5
20260906102921 76 269 0.0 1.0 0.00 0.00 0.00 74 1013.2
20260906102422 76 226 1.0 2.0 0.00 0.00 0.00 73 1013.2
20260906101922 76 219 1.0 1.0 0.00 0.00 0.00 73 1013.2
20260906101422 76 219 1.0 2.0 0.00 0.00 0.00 72 1012.9
20260906100924 77 242 0.0 1.0 0.00 0.00 0.00 72 1013.2
20260906100422 77 222 2.0 2.0 0.00 0.00 0.00 72 1012.9
20260906095922 76 205 1.0 2.0 0.00 0.00 0.00 72 1013.2
20260906095423 77 238 2.0 2.0 0.00 0.00 0.00 72 1012.9
20260906094922 77 266 1.0 1.0 0.00 0.00 0.00 72 1012.5
20260906094422 77 257 1.0 1.0 0.00 0.00 0.00 71 1012.9
20260906093922 77 216 2.0 2.0 0.00 0.00 0.00 72 1012.9
20260906093422 77 221 1.0 2.0 0.00 0.00 0.00 72 1012.9
20260906092922 77 266 1.0 1.0 0.00 0.00 0.00 72 1012.9
20260906092423 77 231 0.0 0.0 0.00 0.00 0.00 71 1012.9
20260906091923 77 288 1.0 1.0 0.00 0.00 0.00 70 1013.2
20260906091423 78 246 0.0 3.0 0.00 0.00 0.00 70 1012.9
20260906090922 78 253 0.0 2.0 0.00 0.00 0.00 70 1013.2
20260906090422 77 207 2.0 2.0 0.00 0.00 0.00 70 1013.2
20260906085922 78 271 1.0 2.0 0.00 0.00 0.00 70 1013.2
20260906085422 78 283 0.0 2.0 0.00 0.00 0.00 70 1013.2
20260906084922 78 220 0.0 0.0 0.00 0.00 0.00 70 1012.9
20260906084423 77 269 2.0 2.0 0.00 0.00 0.00 70 1012.9
20260906083922 77 336 0.0 1.0 0.00 0.00 0.00 70 1012.9
20260906083422 77 233 0.0 2.0 0.00 0.00 0.00 71 1012.9
20260906082922 77 255 1.0 2.0 0.00 0.00 0.00 71 1012.9
20260906082422 77 280 1.0 2.0 0.00 0.00 0.00 71 1012.9
20260906081922 77 315 0.0 1.0 0.00 0.00 0.00 71 1012.9
20260906081422 77 231 2.0 2.0 0.00 0.00 0.00 72 1012.9
20260906080924 77 297 0.0 2.0 0.00 0.00 0.00 72 1012.9
20260906080422 77 252 1.0 1.0 0.00 0.00 0.00 71 1013.2
20260906075922 77 258 0.0 1.0 0.00 0.00 0.00 71 1012.9
20260906075422 77 266 0.0 1.0 0.00 0.00 0.00 71 1012.9
20260906074922 77 262 0.0 1.0 0.00 0.00 0.00 71 1013.2
20260906074422 77 293 0.0 1.0 0.00 0.00 0.00 70 1013.2
20260906073922 77 315 0.0 1.0 0.00 0.00 0.00 70 1012.9
20260906073422 77 260 1.0 2.0 0.00 0.00 0.00 70 1012.9
20260906072922 78 269 0.0 0.0 0.00 0.00 0.00 70 1013.2
20260906072423 78 297 0.0 1.0 0.00 0.00 0.00 70 1013.2
20260906071922 78 314 0.0 1.0 0.00 0.00 0.00 69 1012.9
20260906071422 78 293 0.0 1.0 0.00 0.00 0.00 69 1012.9
20260906070923 78 284 0.0 1.0 0.00 0.00 0.00 68 1013.2
20260906070423 78 274 0.0 1.0 0.00 0.00 0.00 68 1013.2
20260906065923 78 275 1.0 1.0 0.00 0.00 0.00 68 1013.2
20260906065422 79 269 1.0 2.0 0.00 0.00 0.00 67 1012.9
20260906064922 79 297 0.0 2.0 0.00 0.00 0.00 66 1013.2
20260906064423 79 324 1.0 2.0 0.00 0.00 0.00 66 1013.2
20260906063922 80 313 1.0 2.0 0.00 0.00 0.00 65 1013.2
20260906063422 80 293 0.0 1.0 0.00 0.00 0.00 64 1013.2
20260906062921 80 309 0.0 0.0 0.00 0.00 0.00 64 1013.5
20260906062422 80 315 0.0 0.0 0.00 0.00 0.00 63 1013.2
20260906061921 80 315 0.0 0.0 0.00 0.00 0.00 63 1013.5
20260906061422 80 217 0.0 2.0 0.00 0.00 0.00 63 1013.5
20260906060922 81 314 0.0 1.0 0.00 0.00 0.00 63 1013.2
20260906060422 81 331 1.0 2.0 0.00 0.00 0.00 63 1013.2
20260906055922 81 314 1.0 1.0 0.00 0.00 0.00 63 1013.2
20260906055422 81 315 1.0 2.0 0.00 0.00 0.00 63 1013.2
20260906054922 80 326 0.0 2.0 0.00 0.00 0.00 63 1012.9
20260906054422 80 315 0.0 1.0 0.00 0.00 0.00 63 1013.2
20260906053922 80 294 0.0 1.0 0.00 0.00 0.00 63 1012.9
20260906053422 80 317 1.0 2.0 0.00 0.00 0.00 63 1012.9
20260906052922 80 326 0.0 1.0 0.00 0.00 0.00 63 1012.9
20260906052422 81 290 0.0 1.0 0.00 0.00 0.00 62 1013.2
20260906051922 81 230 0.0 0.0 0.00 0.00 0.00 62 1013.2
20260906051422 81 315 0.0 1.0 0.00 0.00 0.00 62 1013.2
20260906050921 81 302 1.0 2.0 0.00 0.00 0.00 62 1013.2
20260906050422 81 295 0.0 0.0 0.00 0.00 0.00 62 1013.2
20260906045922 81 329 0.0 1.0 0.00 0.00 0.00 62 1013.2
20260906045422 81 242 0.0 1.0 0.00 0.00 0.00 61 1013.2
20260906044922 81 311 0.0 0.0 0.00 0.00 0.00 61 1013.2
20260906044422 81 304 0.0 1.0 0.00 0.00 0.00 61 1012.9
20260906043924 81 284 0.0 0.0 0.00 0.00 0.00 61 1013.2
20260906043423 81 224 0.0 0.0 0.00 0.00 0.00 61 1013.2
20260906042922 81 309 0.0 0.0 0.00 0.00 0.00 62 1013.2
20260906042422 81 296 0.0 1.0 0.00 0.00 0.00 61 1013.5
20260906041922 81 291 0.0 1.0 0.00 0.00 0.00 61 1013.2
20260906041422 81 309 0.0 2.0 0.00 0.00 0.00 61 1013.5
20260906040921 82 224 0.0 0.0 0.00 0.00 0.00 61 1013.2
20260906040422 82 269 0.0 1.0 0.00 0.00 0.00 61 1013.2
20260906035922 82 279 0.0 2.0 0.00 0.00 0.00 60 1013.5
20260906035422 83 260 1.0 2.0 0.00 0.00 0.00 59 1013.2
20260906034922 83 272 1.0 1.0 0.00 0.00 0.00 59 1013.2
20260906034422 83 232 1.0 2.0 0.00 0.00 0.00 58 1013.2
20260906033922 83 314 0.0 1.0 0.00 0.00 0.00 58 1012.9
20260906033422 84 299 0.0 2.0 0.00 0.00 0.00 57 1012.9
20260906032923 84 269 0.0 2.0 0.00 0.00 0.00 57 1012.9
20260906032422 84 252 0.0 1.0 0.00 0.00 0.00 57 1012.9
20260906031922 84 238 1.0 1.0 0.00 0.00 0.00 56 1012.9
20260906031422 85 248 1.0 1.0 0.00 0.00 0.00 55 1012.9
20260906030922 85 269 0.0 1.0 0.00 0.00 0.00 55 1013.2
20260906030422 85 282 1.0 1.0 0.00 0.00 0.00 55 1012.9
20260906025923 85 309 0.0 1.0 0.00 0.00 0.00 55 1012.9
20260906025422 85 290 1.0 1.0 0.00 0.00 0.00 54 1012.9
20260906024923 85 228 2.0 2.0 0.00 0.00 0.00 54 1012.9
20260906024422 85 300 0.0 1.0 0.00 0.00 0.00 54 1012.5
20260906023922 86 293 0.0 1.0 0.00 0.00 0.00 53 1012.9
20260906023423 86 280 0.0 2.0 0.00 0.00 0.00 53 1012.9
20260906022922 86 231 1.0 3.0 0.00 0.00 0.00 52 1012.5
20260906022422 86 205 0.0 2.0 0.00 0.00 0.00 52 1012.5
20260906021922 86 195 0.0 1.0 0.00 0.00 0.00 52 1012.2
20260906021422 87 306 3.0 5.0 0.00 0.00 0.00 51 1012.9
20260906020922 87 299 0.0 2.0 0.00 0.00 0.00 50 1012.2
20260906020422 87 239 0.0 1.0 0.00 0.00 0.00 50 1012.2
20260906015922 87 257 1.0 2.0 0.00 0.00 0.00 50 1012.5
20260906015422 87 263 0.0 1.0 0.00 0.00 0.00 50 1012.2
20260906014923 87 243 0.0 1.0 0.00 0.00 0.00 50 1012.2
20260906014422 88 269 0.0 1.0 0.00 0.00 0.00 50 1011.9
20260906013922 88 256 0.0 1.0 0.00 0.00 0.00 49 1011.9
20260906013422 88 287 1.0 2.0 0.00 0.00 0.00 48 1011.9
20260906012922 89 275 0.0 1.0 0.00 0.00 0.00 47 1011.9
20260906012422 89 299 1.0 2.0 0.00 0.00 0.00 47 1011.9
20260906011922 89 296 1.0 2.0 0.00 0.00 0.00 46 1012.2
20260906011422 90 276 1.0 2.0 0.00 0.00 0.00 46 1011.9
20260906010922 90 229 0.0 1.0 0.00 0.00 0.00 47 1011.9
20260906010422 91 238 2.0 2.0 0.00 0.00 0.00 45 1011.9
20260906005922 91 254 1.0 1.0 0.00 0.00 0.00 45 1011.9
20260906005422 92 277 1.0 2.0 0.00 0.00 0.00 43 1011.9
20260906004922 93 263 0.0 2.0 0.00 0.00 0.00 42 1011.5
20260906004422 94 251 1.0 1.0 0.00 0.00 0.00 41 1011.5
20260906003922 95 275 1.0 2.0 0.00 0.00 0.00 39 1011.9
20260906003422 97 264 1.0 2.0 0.00 0.00 0.00 38 1011.5
20260906002922 98 251 2.0 2.0 0.00 0.00 0.00 37 1011.9
20260906002422 99 248 1.0 2.0 0.00 0.00 0.00 36 1011.9
20260906001922 100 280 1.0 2.0 0.00 0.00 0.00 35 1011.5
20260906001422 101 263 1.0 2.0 0.00 0.00 0.00 34 1011.5
20260906000922 102 261 0.0 2.0 0.00 0.00 0.00 33 1011.2
20260906000422 102 269 1.0 2.0 0.00 0.00 0.00 32 1011.5
20260905235922 102 259 1.0 3.0 0.00 0.00 0.00 32 1011.5
20260905235422 102 298 2.0 3.0 0.00 0.00 0.00 31 1011.2
20260905234927 102 256 2.0 3.0 0.00 0.00 0.00 31 1011.5
20260905234423 102 261 2.0 2.0 0.00 0.00 0.00 32 1011.5
20260905233923 102 272 2.0 3.0 0.00 0.00 0.00 31 1011.5
20260905233422 102 300 2.0 3.0 0.00 0.00 0.00 31 1011.5
20260905232922 102 248 2.0 3.0 0.00 0.00 0.00 31 1011.5
20260905232422 103 261 2.0 3.0 0.00 0.00 0.00 31 1011.5
20260905231922 102 299 2.0 3.0 0.00 0.00 0.00 31 1011.2
20260905231422 102 289 3.0 5.0 0.00 0.00 0.00 32 1011.5
20260905230923 101 226 2.0 3.0 0.00 0.00 0.00 33 1011.2
20260905230424 101 280 3.0 3.0 0.00 0.00 0.00 32 1011.2
20260905225922 101 307 3.0 4.0 0.00 0.00 0.00 32 1011.2
20260905225425 100 274 2.0 2.0 0.00 0.00 0.00 33 1011.2
20260905224922 100 313 4.0 5.0 0.00 0.00 0.00 33 1011.2
20260905224423 99 290 2.0 3.0 0.00 0.00 0.00 34 1011.2
20260905223922 99 292 2.0 2.0 0.00 0.00 0.00 35 1011.2
20260905223425 100 296 2.0 2.0 0.00 0.00 0.00 34 1011.2
20260905222923 100 224 3.0 3.0 0.00 0.00 0.00 34 1011.5
20260905221946 102 280 2.0 3.0 0.00 0.00 0.00 33 1011.2
20260905221423 101 315 3.0 5.0 0.00 0.00 0.00 33 1011.2
20260905220922 101 331 2.0 5.0 0.00 0.00 0.00 33 1011.5
20260905220422 101 296 3.0 6.0 0.00 0.00 0.00 32 1011.2
20260905215922 101 305 3.0 5.0 0.00 0.00 0.00 33 1011.2
20260905215422 101 311 4.0 10.0 0.00 0.00 0.00 33 1011.5
20260905214922 101 317 6.0 8.0 0.00 0.00 0.00 33 1011.5
20260905214422 102 301 4.0 9.0 0.00 0.00 0.00 31 1011.2
20260905213922 101 243 3.0 3.0 0.00 0.00 0.00 31 1011.9
20260905213423 101 282 3.0 3.0 0.00 0.00 0.00 31 1011.5
20260905212922 101 269 4.0 5.0 0.00 0.00 0.00 32 1011.9
20260905212423 101 276 4.0 4.0 0.00 0.00 0.00 32 1011.9
20260905211921 100 222 3.0 3.0 0.00 0.00 0.00 32 1011.9
20260905211422 100 312 2.0 4.0 0.00 0.00 0.00 33 1012.2
20260905210922 99 257 3.0 5.0 0.00 0.00 0.00 34 1012.2
20260905210422 98 266 2.0 5.0 0.00 0.00 0.00 35 1012.2
20260905205922 97 260 2.0 4.0 0.00 0.00 0.00 37 1012.2
20260905205423 97 294 2.0 3.0 0.00 0.00 0.00 37 1012.2
20260905204922 99 287 2.0 3.0 0.00 0.00 0.00 37 1012.5
20260905204422 100 276 2.0 5.0 0.00 0.00 0.00 36 1012.5
20260905203922 100 273 2.0 3.0 0.00 0.00 0.00 36 1012.5
20260905203422 101 283 2.0 3.0 0.00 0.00 0.00 35 1012.5
20260905202922 102 272 3.0 4.0 0.00 0.00 0.00 34 1012.5
20260905202422 102 256 3.0 3.0 0.00 0.00 0.00 34 1012.5
20260905201922 102 292 5.0 9.0 0.00 0.00 0.00 34 1012.5
20260905201422 100 260 4.0 6.0 0.00 0.00 0.00 35 1012.9
20260905200922 100 236 4.0 6.0 0.00 0.00 0.00 35 1012.9
20260905200422 100 292 3.0 6.0 0.00 0.00 0.00 34 1012.9
20260905195922 100 249 3.0 6.0 0.00 0.00 0.00 34 1012.9
20260905195424 99 230 4.0 4.0 0.00 0.00 0.00 35 1012.9
20260905194923 98 271 4.0 7.0 0.00 0.00 0.00 36 1012.9
20260905194423 98 328 5.0 6.0 0.00 0.00 0.00 37 1013.5
20260905193922 98 277 2.0 2.0 0.00 0.00 0.00 38 1013.2
20260905193422 98 296 3.0 7.0 0.00 0.00 0.00 37 1013.2
20260905192922 99 289 2.0 5.0 0.00 0.00 0.00 36 1013.5
20260905192422 100 303 2.0 5.0 0.00 0.00 0.00 35 1013.2
20260905191922 100 253 3.0 5.0 0.00 0.00 0.00 36 1013.2
20260905191422 99 289 4.0 6.0 0.00 0.00 0.00 37 1013.2
20260905190922 99 198 3.0 6.0 0.00 0.00 0.00 36 1013.5
20260905190422 98 276 2.0 3.0 0.00 0.00 0.00 36 1013.5
20260905185922 99 297 3.0 6.0 0.00 0.00 0.00 36 1013.5
20260905185422 99 236 1.0 6.0 0.00 0.00 0.00 36 1013.5
20260905184922 98 203 2.0 5.0 0.00 0.00 0.00 35 1013.5
20260905184422 98 302 5.0 11.0 0.00 0.00 0.00 36 1013.9
20260905183922 97 286 4.0 4.0 0.00 0.00 0.00 37 1014.2
20260905183422 97 299 4.0 7.0 0.00 0.00 0.00 37 1014.2
20260905182922 97 261 3.0 7.0 0.00 0.00 0.00 37 1014.2
20260905182422 96 202 3.0 3.0 0.00 0.00 0.00 39 1014.2
20260905181922 97 235 3.0 4.0 0.00 0.00 0.00 39 1014.2
20260905181422 97 262 2.0 3.0 0.00 0.00 0.00 39 1014.2